TimeEST,TemperatureF,Dew PointF,Humidity,Sea Level PressureIn,VisibilityMPH,Wind Direction,Wind SpeedMPH,Gust SpeedMPH,PrecipitationIn,Events,Conditions,WindDirDegrees,DateUTC
12:53 AM,55.0,48.9,80,30.21,10.0,North,15.0,-,N/A,,Overcast,10,2012-11-17 05:53:00
1:53 AM,55.0,50.0,83,30.19,10.0,North,13.8,-,N/A,,Overcast,350,2012-11-17 06:53:00
2:53 AM,55.0,50.0,83,30.18,10.0,NNW,15.0,-,N/A,,Overcast,340,2012-11-17 07:53:00
3:53 AM,55.0,50.0,83,30.17,10.0,North,12.7,-,N/A,,Overcast,350,2012-11-17 08:53:00
4:53 AM,55.9,51.1,84,30.17,10.0,NNW,12.7,-,N/A,,Overcast,340,2012-11-17 09:53:00
5:53 AM,55.9,52.0,87,30.19,10.0,NNW,12.7,-,N/A,,Overcast,340,2012-11-17 10:53:00
6:53 AM,60.1,54.0,80,30.19,9.0,NNE,17.3,-,N/A,,Overcast,20,2012-11-17 11:53:00
7:49 AM,60.8,53.6,77,30.22,7.0,North,15.0,-,N/A,,Overcast,10,2012-11-17 12:49:00
7:53 AM,60.1,54.0,80,30.21,7.0,North,16.1,-,N/A,,Overcast,10,2012-11-17 12:53:00
8:53 AM,57.0,52.0,83,30.22,7.0,NNW,12.7,-,N/A,,Overcast,340,2012-11-17 13:53:00
9:53 AM,60.1,55.0,83,30.23,7.0,NNE,17.3,25.3,N/A,,Overcast,20,2012-11-17 14:53:00
10:53 AM,61.0,54.0,78,30.23,8.0,NNE,16.1,-,N/A,,Overcast,20,2012-11-17 15:53:00
11:53 AM,61.0,53.1,75,30.22,8.0,NNE,13.8,-,N/A,,Overcast,20,2012-11-17 16:53:00
12:53 PM,59.0,52.0,78,30.21,8.0,NNE,18.4,-,N/A,,Overcast,20,2012-11-17 17:53:00
1:53 PM,60.1,52.0,75,30.19,10.0,NNE,17.3,-,N/A,,Mostly Cloudy,20,2012-11-17 18:53:00
2:53 PM,57.9,51.1,78,30.20,10.0,NNE,20.7,-,N/A,,Overcast,30,2012-11-17 19:53:00
3:53 PM,57.0,51.1,81,30.22,9.0,North,16.1,25.3,N/A,,Overcast,10,2012-11-17 20:53:00
4:53 PM,57.0,51.1,81,30.21,8.0,North,18.4,-,N/A,,Overcast,10,2012-11-17 21:53:00
5:53 PM,57.0,51.1,81,30.24,8.0,NNE,19.6,24.2,N/A,,Overcast,20,2012-11-17 22:53:00
6:53 PM,57.0,50.0,77,30.25,10.0,NNE,19.6,26.5,N/A,,Overcast,20,2012-11-17 23:53:00
7:53 PM,57.9,51.1,78,30.25,10.0,NNE,17.3,-,N/A,,Overcast,20,2012-11-18 00:53:00
8:53 PM,57.0,48.9,74,30.25,10.0,North,18.4,28.8,N/A,,Overcast,10,2012-11-18 01:53:00
9:53 PM,57.0,48.9,74,30.25,10.0,North,17.3,-,N/A,,Overcast,10,2012-11-18 02:53:00
10:53 PM,55.9,48.0,75,30.24,10.0,North,13.8,-,N/A,,Overcast,360,2012-11-18 03:53:00
11:53 PM,55.9,48.0,75,30.23,10.0,North,16.1,-,N/A,,Overcast,360,2012-11-18 04:53:00